Regional Weather Roundup
Issued by NWS

Home | Current Version | Previous Version | Text Only | Print | Product List | Glossary On
Versions: 1 2 3 4 5 6 7 8 9 10 11 12 13 14 15 16 17 18 19 20 21 22 23 24 25 26 27 28 29 30 31 32 33 34 35 36 37 38 39 40 41 42 43 44 45 46 47 48 49 50
962
ASUS43 KMKX 240321
RWRWI

WISCONSIN REGIONAL WEATHER ROUNDUP
NATIONAL WEATHER SERVICE MILWAUKEE/SULLIVAN WI
1000 PM CDT SUN APR 23 2017

NOTE: "FAIR" INDICATES FEW OR NO CLOUDS BELOW 12,000 FEET WITH NO
SIGNIFICANT WEATHER AND/OR OBSTRUCTIONS TO VISIBILITY.

WIZ001-002-006>008-014>016-023>028-240400-
NORTHWEST WISCONSIN

CITY           SKY/WX    TMP DP  RH WIND       PRES   REMARKS
SUPERIOR ARPT  PTCLDY    35  28  77 E17G26    30.09F WCI  24
ASHLAND        CLOUDY    36  26  67 NE10      30.11F WCI  28
HAYWARD        PTCLDY    37  29  72 NE9       30.03F WCI  30
SIREN          MOCLDY    37  29  73 E9G16     30.00F WCI  30
CUMBERLAND     CLEAR     41  34  75 NE15      29.98S
RICE LAKE      CLEAR     45  37  72 NE9       29.99S
CHETEK         CLEAR     47  38  71 NE7       29.98R
LADYSMITH      PTCLDY    44  36  73 NE10      30.01S
EAU CLAIRE     CLEAR     54  40  59 NE7       29.92S
MENOMONIE      CLEAR     54  41  61 NE5       29.92R
NEW RICHMOND   PTCLDY    48  38  67 NE12      29.94R
OSCEOLA        CLOUDY    47  38  70 NE9       29.96S
$$

WIZ003>005-009-010-017-018-240400-
NORTH CENTRAL WISCONSIN

CITY           SKY/WX    TMP DP  RH WIND       PRES   REMARKS
MANITOWISH WTR PTCLDY    34  28  79 NE8       30.07F WCI  27
ARBOR VITAE    CLEAR     39  32  75 E7        30.06S WCI  34
WOODRUFF       CLEAR     39  32  75 E7        30.06S WCI  34
RHINELANDER    CLEAR     39  31  72 E12       30.07R WCI  32
EAGLE RIVER    CLEAR     36  27  71 E9        30.09S WCI  29
LAND O LAKES   CLOUDY    33  25  73 E6        30.12R WCI  27
PHILLIPS       PTCLDY    39  33  80 E9        30.03S WCI  33
TOMAHAWK       CLEAR     40  32  72 E8        30.05S
MEDFORD        PTCLDY    46  38  73 E10G16    30.01R
MERRILL        CLEAR     44  35  72 SE12G18   30.05S
$$

WIZ029-030-035-036-043>047-240400-
CENTRAL WISCONSIN

CITY           SKY/WX    TMP DP  RH WIND       PRES   REMARKS
WAUSAU         CLEAR     42  34  73 E17       30.05R
MOSINEE        CLEAR     43  36  75 E12G20    30.06R
MARSHFIELD     CLEAR     47  39  74 SE14      30.01R
STEVENS POINT  CLEAR     40  34  80 E15G23    30.07R WCI  31
WAUPACA        PTCLDY    43  36  75 E8        30.10R
WAUTOMA        CLOUDY    43  37  79 E8        30.08R
WISC RAPIDS    CLEAR     47  41  80 SE9       30.05R
CAMP DOUGLAS   CLEAR     52  43  70 E12       30.00R
$$

WIZ011>013-019>022-031-037>040-048>050-240400-
NORTHEAST WISCONSIN

CITY           SKY/WX    TMP DP  RH WIND       PRES   REMARKS
ANTIGO         CLEAR     37  31  79 E16G22    30.08S WCI  27
SHAWANO        CLOUDY    41  31  68 E12       30.12R
OCONTO         MOCLDY    39  29  68 NE7       30.13S WCI  34
STURGEON BAY   PTCLDY    38  27  64 NE9       30.14S WCI  31
GREEN BAY      MOCLDY    40  29  64 NE13      30.12R WCI  32
MANITOWOC      PTCLDY    39  29  67 NE10      30.11S WCI  32
APPLETON       PTCLDY    39  28  65 E10G18    30.09R WCI  32
CLINTONVILLE   CLOUDY    39  32  75 E13       30.11R WCI  32
OSHKOSH        MOCLDY    40  32  73 E10       30.09R WCI  33
$$

WIZ032>034-041-042-053>061-240400-
SOUTHWEST WISCONSIN

CITY           SKY/WX    TMP DP  RH WIND       PRES   REMARKS
LA CROSSE      PTCLDY    60  41  49 E3        29.94S
SPARTA         MOCLDY    53  38  56 E5        29.98R
VIROQUA        PTCLDY    59  31  35 SE6       29.98S
BOSCOBEL       CLOUDY    54  41  61 CALM      29.98R
PRAIRIE DU CHI CLOUDY    56  39  54 E3        29.98R
PLATTEVILLE    CLOUDY    57  38  49 SE8       30.00S
$$

WIZ056-057-062-063-064-067-068-240400-
SOUTH CENTRAL WISCONSIN

CITY           SKY/WX    TMP DP  RH WIND       PRES   REMARKS
REEDSBURG      CLEAR     52  43  70 E8        30.01R
BARABOO/DELLS  CLEAR     49  40  69 E8        30.02R
LONE ROCK      PTCLDY    51  42  71 NE5       29.99R
MINERAL POINT  CLOUDY    59  32  36 SE5       30.00S
MADISON        PTCLDY    49  38  65 E7        30.03R
MIDDLETON      PTCLDY    55  43  65 E8        30.03R
WATERTOWN      PTCLDY    40  37  86 E8        30.06S
MONROE         CLEAR     59  34  38 S7        30.01S
JANESVILLE     CLEAR     50  37  62 E7        30.03F
$$

WIZ051-052-058>065-066-070>072-240400-
SOUTHEAST WISCONSIN

CITY           SKY/WX    TMP DP  RH WIND       PRES   REMARKS
MILWAUKEE      MOCLDY    39  33  79 N8        30.09S WCI  33
WAUKESHA       NOT AVBL
MILWAUKEE/TIMM CLOUDY    37  32  81 NE7       30.09F WCI  32
RACINE         CLOUDY    39  35  86 N8        30.10S WCI  33
KENOSHA        CLOUDY    40  36  86 NE6       30.08S
FOND DU LAC    MOCLDY    40  32  73 E7        30.09R
SHEBOYGAN      CLOUDY    39  32  76 NE13      30.10S WCI  31
WEST BEND      CLOUDY    37  32  81 E9        30.09S WCI  31
JUNEAU         MOCLDY    40  35  80 E5        30.08R
$$

LSZ147-162-240400-
LAKE SUPERIOR

STATION/POSITION TIME  TEMP    WIND        PRES    WAVE
                       AIR SEA DIR/SP/G            HT/PER
                 (UTC) (F)     (DEG/KT/KT) (MB)    (FT/S)
DEVILS ISLAND    0300   35      90/ 19/ 20 1021.1F
SAXON HARBOR     0230   37      80/  3/  5 1019.6F
$$

LMZ867-665-643>646-240400-
LAKE MICHIGAN

STATION/POSITION TIME  TEMP    WIND        PRES    WAVE
                       AIR SEA DIR/SP/G            HT/PER
                 (UTC) (F)     (DEG/KT/KT) (MB)    (FT/S)
CHAMBERS ISLAND  0240   38      20/ 16/ 19 1020.7S
N MID LAKE BUOY  0250   37 37   30/ 12/ 14 1022.6R   1/ 3
NORTHPORT PIER   0240   38      30/  6/  9 1021.3R
SISTER BAY       0221   37      40/  8/  9   N/A
KEWAUNEE LAKESHO 0254   39      50/ 11/ 17 1019.7R
SHEBOYGAN LAKESH 0300   39      20/ 16/ 18 1019.2F
PORT WASHINGTON  0240   40      30/  6/ 13 1020.0F
MILWAUKEE LAKESH 0300   39      10/  9/ 11   N/A
S MID LAKE BUOY  0250   40 41   30/  6/  6 1018.8F   2/ 5
KENOSHA   LAKESH 0300   41      20/ 12/ 14 1018.3
$$

TC  - TEMPERATURE IN CELSIUS
VSB - VISIBILITY IN STATUTE MILES
WCI - WIND CHILL INDEX
HX  - HEAT INDEX





USA.gov is the U.S. government's official web portal to all federal, state and local government web resources and services.